Date String (YYYY-MM-DD hh:mm:ss) UTC,Instrument flags,Ambient pressure (hPa),Sample flow (lpm),Bypass flow (lpm),Sample temperature (°C),Ambient temperature (°C),ASC tube jacket temperature (°C),LED temperature (°C),Box temperature (°C),Sample RH (%),Span deviation,Mass concentration (μg/m³),Mass concentration (μg/m³),Mass concentration (μg/m³)
DateTimeUTC,F1_M11,P_M11,Q1_M11,Q2_M11,T1_M11,T2_M11,T3_M11,T4_M11,T5_M11,U1_M11,ZSPAN_M11,X0_M11,X2_M11,X1_M11
2022-01-02 15:00:00,,0826.9,5.01,0.00,22.8,22.7,00.0,31.8,24.4,06.2,0000.0,0002.40,0000.13,0000.01
2022-01-02 15:01:00,,0826.9,4.99,0.00,22.7,22.5,00.0,31.8,24.3,06.2,0000.0,0002.38,0000.13,0000.01
2022-01-02 15:02:00,,0827.0,5.01,0.00,22.7,22.3,00.0,31.8,24.3,06.2,0000.0,0003.37,0000.11,0000.01
2022-01-02 15:03:00,,0827.0,4.99,0.00,22.7,22.2,00.0,31.7,24.2,06.3,0000.0,0003.40,0000.11,0000.01
2022-01-02 15:04:00,,0827.0,5.00,0.00,22.6,22.1,00.0,31.7,24.2,06.3,0000.0,0003.40,0000.11,0000.01
2022-01-02 15:05:00,,0827.1,5.01,0.00,22.6,22.0,00.0,31.7,24.2,06.2,0000.0,0001.75,0000.11,0000.00
2022-01-02 15:06:00,,0827.0,4.98,0.00,22.6,21.9,00.0,31.7,24.1,06.3,0000.0,0001.41,0000.06,0000.00
2022-01-02 15:07:00,,0827.0,5.00,0.00,22.5,21.9,00.0,31.7,24.1,06.3,0000.0,0001.39,0000.03,0000.00
2022-01-02 15:08:00,,0827.0,5.01,0.00,22.5,21.8,00.0,31.7,24.1,06.4,0000.0,0001.82,0000.04,0000.00
2022-01-02 15:09:00,,0827.0,4.99,0.00,22.5,21.8,00.0,31.6,24.0,06.5,0000.0,0001.78,0000.04,0000.00
2022-01-02 15:10:00,,0827.1,5.00,0.00,22.5,22.4,00.0,31.6,24.2,06.5,0000.0,0001.71,0000.04,0000.00
2022-01-02 15:11:00,,0827.2,5.00,0.00,22.7,23.3,00.0,31.7,24.6,06.4,0000.0,0001.71,0000.04,0000.00
2022-01-02 15:12:00,,0827.0,4.99,0.00,22.8,23.5,00.0,31.7,24.7,06.3,0000.0,0001.75,0000.04,0000.00
2022-01-02 15:13:00,,0827.0,5.00,0.00,22.8,23.2,00.0,31.7,24.7,06.2,0000.0,0001.01,0000.06,0000.00
2022-01-02 15:14:00,,0827.2,5.01,0.00,22.8,23.0,00.0,31.7,24.6,06.2,0000.0,0000.70,0000.08,0000.00
2022-01-02 15:15:00,,0827.6,5.01,0.00,22.8,22.8,00.0,31.7,24.5,06.3,0000.0,0000.71,0000.08,0000.00
2022-01-02 15:16:00,,0827.5,4.99,0.00,22.8,22.7,00.0,31.8,24.5,06.3,0000.0,0000.78,0000.09,0000.00
2022-01-02 15:17:00,,0827.2,5.01,0.00,22.8,22.5,00.0,31.7,24.4,06.3,0000.0,0000.78,0000.08,0000.00
2022-01-02 15:18:00,,0827.4,4.99,0.00,22.8,22.4,00.0,31.7,24.4,06.3,0000.0,0000.79,0000.09,0000.00
2022-01-02 15:19:00,,0827.2,5.01,0.00,22.7,22.3,00.0,31.7,24.3,06.5,0000.0,0000.35,0000.08,0000.00
2022-01-02 15:20:00,,0827.3,5.00,0.00,22.7,22.2,00.0,31.7,24.3,06.4,0000.0,0000.32,0000.08,0000.00
2022-01-02 15:21:00,,0827.6,4.99,0.00,22.7,22.1,00.0,31.7,24.3,06.5,0000.0,0000.32,0000.08,0000.00
2022-01-02 15:22:00,,0827.2,5.01,0.00,22.7,22.1,00.0,31.7,24.2,06.5,0000.0,0000.33,0000.08,0000.00
2022-01-02 15:23:00,,0827.4,5.01,0.00,22.6,22.0,00.0,31.7,24.2,06.6,0000.0,0000.32,0000.08,0000.00
2022-01-02 15:24:00,,0827.1,5.00,0.00,22.6,22.0,00.0,31.7,24.2,06.7,0000.0,0000.28,0000.08,0000.00
2022-01-02 15:25:00,,0827.1,5.00,0.00,22.6,22.0,00.0,31.7,24.2,06.7,0000.0,0000.28,0000.07,0000.01
2022-01-02 15:26:00,,0827.2,5.01,0.00,22.6,21.9,00.0,31.7,24.2,06.6,0000.0,0001.05,0000.07,0000.01
2022-01-02 15:27:00,,0827.2,4.99,0.00,22.6,21.9,00.0,31.7,24.2,06.5,0000.0,0001.62,0000.08,0000.01
2022-01-02 15:28:00,,0827.2,5.01,0.00,22.6,22.1,00.0,31.6,24.2,06.7,0000.0,0001.60,0000.07,0000.01
2022-01-02 15:29:00,,0827.2,4.98,0.00,22.7,23.0,00.0,31.7,24.5,06.7,0000.0,0001.56,0000.06,0000.01
2022-01-02 15:30:00,,0827.2,5.01,0.00,22.8,23.8,00.0,31.7,24.8,06.6,0000.0,0001.55,0000.06,0000.01
2022-01-02 15:31:00,,0827.2,5.00,0.00,22.9,23.7,00.0,31.7,24.9,06.6,0000.0,0001.58,0000.08,0000.01
2022-01-02 15:32:00,,0827.2,5.00,0.00,23.0,23.5,00.0,31.8,24.8,06.5,0000.0,0001.58,0000.08,0000.01
2022-01-02 15:33:00,,0827.2,5.00,0.00,23.0,23.3,00.0,31.8,24.8,06.5,0000.0,0001.58,0000.08,0000.01
2022-01-02 15:34:00,,0827.2,5.01,0.00,23.0,23.1,00.0,31.8,24.7,06.4,0000.0,0001.58,0000.08,0000.01
2022-01-02 15:35:00,,0827.2,4.99,0.00,23.0,22.9,00.0,31.8,24.7,06.4,0000.0,0001.55,0000.07,0000.01
2022-01-02 15:36:00,,0827.2,4.99,0.00,23.0,22.8,00.0,31.8,24.7,06.5,0000.0,0001.64,0000.07,0000.01
2022-01-02 15:37:00,,0827.2,5.01,0.00,22.9,22.7,00.0,31.8,24.6,06.4,0000.0,0002.03,0000.07,0000.00
2022-01-02 15:38:00,,0827.2,4.99,0.00,22.9,22.6,00.0,31.8,24.6,06.5,0000.0,0002.10,0000.06,0000.00
2022-01-02 15:39:00,,0827.2,5.00,0.00,22.9,22.6,00.0,31.8,24.6,06.5,0000.0,0002.10,0000.06,0000.00
2022-01-02 15:40:00,,0827.3,5.00,0.00,22.9,22.5,00.0,31.9,24.6,06.5,0000.0,0002.10,0000.06,0000.00
2022-01-02 15:41:00,,0827.3,5.01,0.00,22.9,22.5,00.0,31.9,24.6,06.4,0000.0,0002.09,0000.05,0000.00
2022-01-02 15:42:00,,0827.3,4.99,0.00,22.9,22.4,00.0,31.9,24.6,06.4,0000.0,0002.06,0000.03,0000.00
2022-01-02 15:43:00,,0827.4,5.01,0.00,22.9,22.4,00.0,31.9,24.5,06.4,0000.0,0002.08,0000.04,0000.00
2022-01-02 15:44:00,,0827.4,5.00,0.00,22.9,22.4,00.0,31.9,24.6,06.5,0000.0,0002.11,0000.05,0000.01
2022-01-02 15:45:00,,0827.4,5.01,0.00,22.9,22.3,00.0,31.9,24.6,06.7,0000.0,0002.13,0000.06,0000.01
2022-01-02 15:46:00,,0827.4,4.99,0.00,22.9,22.3,00.0,31.9,24.6,06.8,0000.0,0002.14,0000.07,0000.01
2022-01-02 15:47:00,,0827.5,5.01,0.00,22.9,22.3,00.0,31.9,24.6,06.9,0000.0,0001.99,0000.05,0000.01
2022-01-02 15:48:00,,0827.5,5.00,0.00,22.9,22.3,00.0,31.9,24.6,06.8,0000.0,0001.50,0000.04,0000.01
2022-01-02 15:49:00,,0827.6,4.99,0.00,22.9,22.3,00.0,31.9,24.6,06.9,0000.0,0000.30,0000.04,0000.01
2022-01-02 15:50:00,,0827.5,5.01,0.00,22.9,22.3,00.0,31.9,24.6,07.5,0000.0,0000.37,0000.05,0000.01
2022-01-02 15:51:00,,0827.5,5.00,0.00,22.9,22.3,00.0,31.9,24.6,07.6,0000.0,0000.47,0000.06,0000.01
2022-01-02 15:52:00,,0827.5,5.00,0.00,23.0,22.3,00.0,31.9,24.7,07.8,0000.0,0001.06,0000.06,0000.01
2022-01-02 15:53:00,,0827.5,5.02,0.00,23.0,22.3,00.0,31.9,24.7,07.5,0000.0,0001.61,0000.06,0000.01
2022-01-02 15:54:00,,0827.6,4.98,0.00,23.0,22.3,00.0,31.9,24.7,07.6,0000.0,0002.89,0000.07,0000.01
2022-01-02 15:55:00,,0827.5,5.02,0.00,23.0,22.3,00.0,31.9,24.7,07.3,0000.0,0003.04,0000.06,0000.01
2022-01-02 15:56:00,,0827.6,4.99,0.00,23.0,22.4,00.0,31.9,24.7,07.1,0000.0,0003.03,0000.06,0000.01
2022-01-02 15:57:00,,0827.6,5.00,0.00,23.0,22.4,00.0,31.9,24.7,07.3,0000.0,0003.00,0000.05,0000.01
2022-01-02 15:58:00,,0827.6,5.01,0.00,23.0,22.4,00.0,31.9,24.8,07.4,0000.0,0003.00,0000.05,0000.01
2022-01-02 15:59:00,,0827.6,4.99,0.00,23.0,22.4,00.0,31.9,24.8,07.7,0000.0,0003.00,0000.05,0000.01
